RH
30 29 29 28 28 30 35 40 38 45 49 57 60 58 58 62 61 56 48 49 58 70 79 91 96 94 93 97 98 98 97 96 95 94 92 90 90 89 87 83 85 79 78
40 36 33 35 33 34 38 40 41 48 50 59 63 60 59 55 63 60 47 51 60 69 81 82 84 91 95 97 98 98 97 98 96 94 91 94 92 94 93 92 92 90 92
31 32 37 39 46 48 48 42 41 50 51 62 64 63 56 56 65 60 48 52 60 71 81 91 84 87 92 94 96 98 97 96 97 95 95 93 94 93 95 96 93 94 96
32 36 42 44 49 54 53 43 45 51 55 66 63 65 58 58 64 58 49 55 64 71 81 92 96 96 96 94 96 96 96 95 94 95 96 95 96 96 95 96 97 96 96
37 39 45 48 53 54 52 49 52 56 60 68 65 63 62 59 63 56 52 56 62 69 72 78 89 98 99 99 98 98 98 98 97 97 97 98 97 98 98 97 97 97 97
41 44 48 52 55 57 55 52 56 64 65 71 68 66 63 60 65 54 53 56 62 62 65 69 84 96 99 98 99 98 99 99 99 98 98 97 98 98 97 97 97 96 96
46 50 55 57 63 63 61 58 61 73 68 74 75 70 65 64 68 55 54 58 59 62 66 67 73 84 91 98 98 98 98 98 98 99 98 98 97 96 96 95 94 93 91
50 54 61 68 71 70 64 65 72 77 84 80 80 72 71 70 71 56 53 56 55 57 61 63 66 73 78 83 88 92 92 94 95 95 91 88 88 88 89 89 89 88 87
55 61 69 77 86 88 89 85 85 83 87 89 86 79 77 75 74 59 56 56 55 58 59 60 61 63 66 70 74 77 79 83 85 85 84 83 83 82 83 84 87 89 92
67 72 77 85 93 98 93 95 96 89 86 90 89 87 83 79 76 61 60 60 59 60 62 62 63 67 67 67 69 69 71 72 73 76 77 77 80 83 87 91 95 96 98
80 85 89 90 98 98 99 98 94 98 95 98 90 88 84 85 76 65 63 64 65 65 65 66 68 69 71 74 78 80 84 88 90 92 94 96 97 97 98 98 99 99 99
89 91 96 99 99 98 98 99 98 99 98 97 97 89 89 84 80 70 64 64 64 65 68 70 75 82 86 91 92 91 92 94 95 96 97 97 98 98 99 99 99 99 98
96 97 98 98 99 98 98 99 99 98 95 95 92 93 89 86 80 72 72 76 78 79 79 83 90 94 95 96 94 91 92 96 98 98 98 99 98 96 91 90 90 90 86
93 97 97 98 98 98 99 98 98 99 95 93 94 92 87 90 92 86 85 88 92 92 89 92 95 97 97 94 93 94 98 91 88 93 94 94 94 92 88 90 92 87 80
96 97 97 98 98 98 98 98 99 98 99 98 98 96 98 97 96 98 98 98 97 94 98 98 98 98 98 96 98 97 97 96 95 94 91 90 89 88 81 75 70 66 61
93 96 97 97 98 97 98 98 98 98 98 98 98 98 98 98 98 97 96 97 98 97 99 98 97 98 98 97 98 98 97 94 92 89 84 79 74 68 62 56 50 42 37
88 91 96 97 97 97 97 96 97 97 98 97 97 98 98 98 97 98 98 97 97 97 93 94 96 96 94 94 91 85 78 73 69 64 60 56 51 46 42 38 34 32 30
77 84 90 93 95 96 97 96 96 97 96 97 97 97 97 96 95 92 88 87 89 86 79 74 73 70 68 67 65 63 60 58 55 51 45 40 37 34 33 33 33 33 33
69 71 76 84 88 93 93 90 88 90 91 93 93 94 92 89 86 82 79 77 74 72 72 68 65 63 61 59 55 52 47 44 40 39 38 37 36 35 34 35 36 35 34
69 70 71 73 74 75 75 76 78 80 78 77 77 78 80 77 74 73 71 68 64 63 62 60 58 54 48 44 43 41 39 37 35 35 35 37 38 35 32 32 33 34 36
70 69 68 71 72 73 74 73 73 73 71 69 68 69 68 65 62 59 56 55 52 48 45 43 40 38 36 35 36 37 36 35 35 37 35 34 35 34 35 37 36 37 35
73 73 74 73 70 68 69 70 72 72 71 68 65 60 56 53 51 49 47 45 44 43 43 41 40 40 41 40 40 39 39 38 37 37 37 38 38 37 36 37 38 37 37
69 70 72 73 72 72 72 72 70 67 65 62 58 55 53 50 49 48 47 47 46 45 44 44 44 43 42 44 44 43 40 39 38 38 39 39 39 40 39 39 39 40 40
71 72 71 71 72 72 72 72 72 69 66 62 60 58 56 53 51 50 50 49 49 48 49 50 48 46 44 43 42 42 41 41 41 41 41 41 41 39 38 40 41 43 42
73 74 74 74 73 71 70 69 67 65 65 63 61 58 55 53 51 50 50 49 48 47 47 47 47 46 46 47 44 42 42 42 42 42 40 38 38 38 40 41 42 42 40
79 79 79 78 76 74 72 71 71 70 70 69 67 64 60 56 53 51 48 47 46 46 48 47 45 46 45 44 43 44 43 42 41 42 41 42 43 43 42 40 36 33 30